Corpus Christi, TX

11:49 PM CDT on May 29, 2017 (GMT -0500)
Corpus Christi International

Weather History for KCRP - January, 2011

Change the Weather History Date:

Sunday, January 2, 2011

  Actual Average Record
Temperature  
Mean Temperature 52 °F 57 °F  
Max Temperature 61 °F 67 °F 87 °F (2000)
Min Temperature 42 °F 47 °F 22 °F (1979)
Degree Days  
Heating Degree Days 13 9  
Month to date heating degree days 18 18  
Since 1 July heating degree days 337 369  
Cooling Degree Days 0 1  
Month to date cooling degree days 0 2  
Year to date cooling degree days 0 2  
Growing Degree Days 1 (Base 50)    
Moisture  
Dew Point 34 °F    
Average Humidity 53    
Maximum Humidity 76    
Minimum Humidity 29    
Precipitation  
Precipitation 0.00 in 0.06 in 1.23 in (2016)
Month to date precipitation 0.00 0.11  
Year to date precipitation 0.00 0.11  
Snow  
Snow 0.00 in - - ()
Month to date snowfall 0.0  
Since 1 July snowfall 0.0  
Snow Depth 0.00 in    
Sea Level Pressure  
Sea Level Pressure 30.31 in    
Wind  
Wind Speed 11 mph (ENE)    
Max Wind Speed 20 mph    
Max Gust Speed 23 mph    
Visibility 10 miles    
Events      
T = Trace of Precipitation, MM = Missing Value Source: NWS Daily Summary

Daily Weather History Graph

Daily Weather History Graph

Search for Another Location

Airport or City:

Trip Planner

Search our weather history database for the weather conditions in past years. The results will help you decide how hot, cold, wet, or windy it might be!

Date:

Astronomy

Jan. 02, 2011 Rise Set
Actual Time 7:21 AM CST 5:46 PM CST
Civil Twilight 6:55 AM CST 6:12 PM CST
Nautical Twilight 6:26 AM CST 6:41 PM CST
Astronomical Twilight 5:57 AM CST 7:10 PM CST
Moon 5:51 AM CST (1/2) 4:24 PM CST (1/2)
Length of Visible Light 11h 17m
Length of Day
10h 25m
Waning Crescent, 3% of the Moon is Illuminated
Jan 2
Waning Crescent
Jan 4
New
Jan 12
First Quarter
Jan 19
Full
Jan 26
Last Quarter

Hourly Weather History & Observations

Time (CST) Temp. Windchill Dew Point Humidity Pressure Visibility Wind Dir Wind Speed Gust Speed Precip Events Conditions
12:51 AM 48.9 °F - 30.9 °F 50% 30.27 in 10.0 mi NE 15.0 mph - N/A   Clear
1:51 AM 46.9 °F - 30.9 °F 54% 30.27 in 10.0 mi NE 15.0 mph - N/A   Clear
2:51 AM 46.0 °F 39.6 °F 30.9 °F 56% 30.28 in 10.0 mi NE 15.0 mph - N/A   Clear
3:51 AM 44.1 °F 38.1 °F 30.0 °F 58% 30.30 in 10.0 mi NE 11.5 mph - N/A   Clear
4:51 AM 43.0 °F 35.7 °F 30.9 °F 62% 30.30 in 10.0 mi NE 15.0 mph - N/A   Clear
5:51 AM 43.0 °F 35.7 °F 32.0 °F 65% 30.32 in 10.0 mi NE 15.0 mph - N/A   Clear
6:51 AM 42.1 °F 34.9 °F 32.0 °F 67% 30.33 in 10.0 mi NE 13.8 mph - N/A   Clear
7:51 AM 42.1 °F 34.5 °F 32.0 °F 67% 30.35 in 10.0 mi NE 15.0 mph - N/A   Clear
8:51 AM 45.0 °F 38.2 °F 32.0 °F 60% 30.37 in 10.0 mi NE 15.0 mph - N/A   Clear
9:51 AM 48.9 °F - 33.1 °F 54% 30.39 in 10.0 mi NE 10.4 mph - N/A   Clear
10:51 AM 54.0 °F - 33.1 °F 45% 30.39 in 10.0 mi NE 11.5 mph - N/A   Clear
11:51 AM 57.9 °F - 32.0 °F 37% 30.36 in 10.0 mi ENE 10.4 mph - N/A   Clear
12:51 PM 60.1 °F - 32.0 °F 35% 30.32 in 10.0 mi NE 10.4 mph - N/A   Clear
1:51 PM 60.1 °F - 28.0 °F 30% 30.30 in 10.0 mi ENE 10.4 mph - N/A   Clear
2:51 PM 60.1 °F - 28.9 °F 31% 30.29 in 10.0 mi East 10.4 mph - N/A   Clear
3:51 PM 59.0 °F - 30.9 °F 35% 30.27 in 10.0 mi East 13.8 mph - N/A   Clear
4:51 PM 57.0 °F - 37.9 °F 49% 30.28 in 10.0 mi East 12.7 mph - N/A   Clear
5:51 PM 54.0 °F - 41.0 °F 62% 30.28 in 10.0 mi East 11.5 mph - N/A   Clear
6:51 PM 53.1 °F - 39.0 °F 59% 30.29 in 10.0 mi East 10.4 mph - N/A   Clear
7:51 PM 51.1 °F - 37.9 °F 61% 30.31 in 10.0 mi East 5.8 mph - N/A   Clear
8:51 PM 48.0 °F - 37.9 °F 68% 30.31 in 10.0 mi ENE 3.5 mph - N/A   Clear
9:51 PM 48.9 °F - 39.0 °F 69% 30.31 in 10.0 mi ENE 4.6 mph - N/A   Partly Cloudy
10:51 PM 46.0 °F 43.9 °F 39.0 °F 76% 30.30 in 10.0 mi NE 4.6 mph - N/A   Clear
11:51 PM 46.9 °F - 41.0 °F 80% 30.28 in 10.0 mi ENE 4.6 mph - N/A   Clear